Location: Bennemühlen
(52.5740°N, 9.7135°E)
Time: 06:52:24
(UTC+00:00)

Cosmos 405 Rocket - Pass Details

Date: 19 May 2025
Orbit: 414 x 448 km, 81.2° (Epoch: 14 June)

Event Time Altitude Azimuth Distance (km) Brightness Sun altitude
Rises 21:34:33 0° 350° (N) 2,467 7.8 -14.1°
Reaches altitude 10° 21:36:41 10° 356° (N) 1,584 6.3 -14.2°
Maximum altitude 21:40:04 50° 73° (ENE) 572 2.8 -14.4°
Enters shadow 21:41:33 28° 135° (SE) 860 3.3 -14.5°
